Haleyville, AL

7:50 PM CST on February 09, 2016 (GMT -0600)
Haleyville

Weather History for K1M4 - December, 2013

Change the Weather History Date:

Monday, December 30, 2013

  Actual Average (KJFX) Record (KJFX)
Temperature  
Mean Temperature 38 °F -  
Max Temperature 43 °F 51 °F 74 °F (1984)
Min Temperature 32 °F 31 °F 7 °F (1983)
Degree Days  
Heating Degree Days 28    
Moisture  
Dew Point 33 °F    
Average Humidity 91    
Maximum Humidity 100    
Minimum Humidity 81    
Precipitation  
Precipitation 0.00 in - - ()
Sea Level Pressure  
Sea Level Pressure 30.23 in    
Wind  
Wind Speed 4 mph (North)    
Max Wind Speed 12 mph    
Max Gust Speed -    
Visibility 6 miles    
Events      
Averages and records for this station are not official NWS values.
T = Trace of Precipitation, MM = Missing Value Source: NWS Daily Summary

Daily Weather History Graph

Daily Weather History Graph

Search for Another Location

Airport or City:

Trip Planner

Search our weather history database for the weather conditions in past years. The results will help you decide how hot, cold, wet, or windy it might be!

Date:

Astronomy

Dec. 30, 2013 Rise Set
Actual Time 6:56 AM CST 4:50 PM CST
Civil Twilight 6:28 AM CST 5:17 PM CST
Nautical Twilight 5:57 AM CST 5:49 PM CST
Astronomical Twilight 5:26 AM CST 6:19 PM CST
Moon 4:47 AM CST (12/30) 3:21 PM CST (12/30)
Length of Visible Light 10h 49m
Length of Day
9h 54m
Waning Crescent, 4% of the Moon is Illuminated
Dec 30
Waning Crescent
Jan 1
New
Jan 7
First Quarter
Jan 15
Full
Jan 23
Last Quarter

Hourly Weather History & Observations

Time (CST) Temp. Windchill Dew Point Humidity Pressure Visibility Wind Dir Wind Speed Gust Speed Precip Events Conditions
12:56 AM 43.0 °F - 38.8 °F 85% 30.16 in 10.0 mi Calm Calm - N/A   Overcast
1:46 AM 42.8 °F 37.0 °F 39.2 °F 87% 30.14 in 10.0 mi NNW 10.4 mph - N/A   Overcast
1:56 AM 41.9 °F 35.9 °F 37.9 °F 86% 30.17 in 10.0 mi NNW 10.4 mph - N/A   Overcast
2:28 AM 39.2 °F 33.6 °F 37.4 °F 93% 30.13 in 10.0 mi North 8.1 mph - N/A   Mostly Cloudy
2:56 AM 38.8 °F 31.6 °F 36.0 °F 89% 30.17 in 9.0 mi North 11.5 mph - N/A   Scattered Clouds
3:56 AM 37.9 °F 33.5 °F 34.9 °F 89% 30.18 in 8.0 mi North 5.8 mph - N/A   Overcast
4:49 AM 37.4 °F 31.4 °F 33.8 °F 87% 30.15 in 8.0 mi North 8.1 mph - N/A   Mostly Cloudy
4:56 AM 36.9 °F 32.2 °F 34.0 °F 89% 30.19 in 8.0 mi North 5.8 mph - N/A   Overcast
5:11 AM 35.6 °F 31.7 °F 33.8 °F 93% 30.16 in 7.0 mi North 4.6 mph - N/A   Overcast
5:56 AM 36.0 °F 30.3 °F 32.9 °F 89% 30.20 in 5.0 mi North 6.9 mph - N/A   Overcast
6:17 AM 35.6 °F 30.7 °F 32.0 °F 87% 30.18 in 6.0 mi NNE 5.8 mph - N/A   Overcast
6:56 AM 34.0 °F 28.0 °F 31.1 °F 89% 30.22 in 8.0 mi North 6.9 mph - N/A   Mostly Cloudy
7:56 AM 34.9 °F - 32.0 °F 89% 30.24 in 6.0 mi Calm Calm - N/A   Overcast
8:56 AM 34.9 °F 29.0 °F 32.0 °F 89% 30.27 in 5.0 mi Variable 6.9 mph - N/A   Overcast
9:56 AM 36.0 °F 33.3 °F 32.9 °F 89% 30.27 in 4.0 mi NE 3.5 mph - N/A   Overcast
10:56 AM 36.0 °F 31.1 °F 32.9 °F 89% 30.26 in 3.0 mi North 5.8 mph - N/A   Overcast
11:56 AM 36.0 °F - 32.0 °F 86% 30.25 in 6.0 mi Calm Calm - N/A   Overcast
12:06 PM 37.4 °F - 32.0 °F 81% 30.21 in 6.0 mi Calm Calm - N/A   Haze
12:56 PM 36.9 °F - 32.0 °F 83% 30.23 in 10.0 mi Calm Calm - N/A   Overcast
1:56 PM 36.0 °F - 32.0 °F 86% 30.22 in 9.0 mi Calm Calm - N/A   Overcast
2:49 PM 35.6 °F - 32.0 °F 87% 30.19 in 5.0 mi Calm Calm - N/A   Overcast
2:56 PM 36.0 °F - 32.0 °F 86% 30.22 in 7.0 mi Calm Calm - N/A   Overcast
3:20 PM 35.6 °F 29.2 °F 32.0 °F 87% 30.20 in 6.0 mi NNW 8.1 mph - 0.00 in   Overcast
3:56 PM 34.9 °F 29.9 °F 32.0 °F 89% 30.25 in 9.0 mi North 5.8 mph - 0.00 in   Overcast
4:18 PM 33.8 °F - 32.0 °F 93% 30.22 in 2.0 mi Calm Calm - 0.00 in   Overcast
4:42 PM 33.8 °F 27.7 °F 32.0 °F 93% 30.23 in 1.2 mi North 6.9 mph - 0.00 in   Overcast
4:49 PM 33.8 °F 28.6 °F 32.0 °F 93% 30.23 in 2.0 mi North 5.8 mph - 0.00 in   Overcast
4:56 PM 32.9 °F 27.5 °F 32.0 °F 96% 30.26 in 2.5 mi North 5.8 mph - 0.00 in   Overcast
5:08 PM 33.8 °F - 32.0 °F 93% 30.22 in 2.0 mi Calm Calm - 0.00 in   Overcast
5:27 PM 33.8 °F - 32.0 °F 93% 30.22 in 2.0 mi Calm Calm - 0.00 in   Overcast
5:56 PM 32.9 °F 28.5 °F 32.0 °F 96% 30.26 in 2.0 mi NNE 4.6 mph - 0.00 in   Overcast
6:36 PM 32.0 °F - 32.0 °F 100% 30.25 in 4.0 mi Calm Calm - N/A   Overcast
6:56 PM 32.0 °F - 32.0 °F 100% 30.28 in 5.0 mi Calm Calm - N/A   Overcast
7:49 PM 32.0 °F - 30.2 °F 93% 30.27 in 8.0 mi Calm Calm - N/A   Overcast
7:56 PM 32.0 °F - 31.1 °F 96% 30.31 in 9.0 mi Calm Calm - N/A   Overcast
8:56 PM 32.0 °F - 31.1 °F 96% 30.32 in 8.0 mi Calm Calm - N/A   Overcast
9:07 PM 32.0 °F - 30.2 °F 93% 30.30 in 7.0 mi Calm Calm - N/A   Overcast
9:39 PM 33.8 °F - 32.0 °F 93% 30.30 in 6.0 mi Calm Calm - N/A   Overcast
9:56 PM 32.9 °F - 32.0 °F 96% 30.33 in 4.0 mi Calm Calm - N/A   Overcast
10:56 PM 32.9 °F - 32.0 °F 96% 30.34 in 5.0 mi Calm Calm - N/A   Overcast
11:56 PM 32.0 °F - 32.0 °F 100% 30.34 in 6.0 mi Calm Calm - N/A   Overcast